Weather History for Fairbanks Ft. Wainwright, AK

Change the Weather History Date:

Saturday, April 6, 2013

  Actual Average Record
Temperature  
Mean Temperature 3 °F -  
Max Temperature 19 °F 34 °F 55 °F (2004)
Min Temperature -13 °F 11 °F -13 °F (2013)
Degree Days  
Heating Degree Days 62    
Moisture  
Dew Point -9 °F    
Average Humidity 55    
Maximum Humidity 78    
Minimum Humidity 33    
Precipitation  
Precipitation 0.00 in - - ()
Sea Level Pressure  
Sea Level Pressure 29.67 in    
Wind  
Wind Speed 2 mph (ENE)    
Max Wind Speed 12 mph    
Max Gust Speed -    
Visibility 10 miles    
Events      
Averages and records for this station are not official NWS values.
T = Trace of Precipitation, MM = Missing Value Source: NWS Daily Summary

Daily Weather History Graph

Daily Weather History Graph

Search for Another Location

Airport:

Trip Planner

Search our weather history database for the weather conditions in past years. The results will help you decide how hot, cold, wet, or windy it might be!

Date:

Astronomy

Apr. 06, 2013 Rise Set
Actual Time 6:46 AM AKDT 9:00 PM AKDT
Civil Twilight 5:53 AM AKDT 9:53 PM AKDT
Nautical Twilight 4:41 AM AKDT 11:07 PM AKDT
Astronomical Twilight 2:41 AM AKDT 1:23 AM AKDT
Moon 5:50 AM AKDT (4/6) 4:34 PM AKDT (4/6)
Length of Visible Light 16h 00m
Length of Day
14h 13m
Waning Crescent, 14% of the Moon is Illuminated
Apr 6
Waning Crescent
Apr 10
New
Apr 18
First Quarter
Apr 25
Full
May 2
Last Quarter

Hourly Weather History & Observations

Time (AKDT) Temp. Windchill Dew Point Humidity Pressure Visibility Wind Dir Wind Speed Gust Speed Precip Events Conditions
12:56 AM -0.0 °F - -13.0 °F 54% 29.76 in 10.0 mi Calm Calm - N/A   Clear
1:56 AM -6.0 °F - -13.0 °F 72% 29.75 in 10.0 mi Calm Calm - N/A   Mostly Cloudy
2:56 AM -9.9 °F -19.2 °F -15.0 °F 78% 29.74 in 10.0 mi ENE 3.5 mph - N/A   Partly Cloudy
3:56 AM -9.0 °F - -16.1 °F 71% 29.72 in 10.0 mi Calm Calm - N/A   Overcast
4:56 AM -9.9 °F -19.2 °F -16.1 °F 74% 29.71 in 10.0 mi North 3.5 mph - N/A   Scattered Clouds
5:56 AM -11.0 °F -20.4 °F -17.0 °F 75% 29.70 in 10.0 mi North 3.5 mph - N/A   Clear
6:56 AM -13.0 °F - -18.0 °F 78% 29.68 in 10.0 mi Calm Calm - N/A   Clear
7:56 AM -11.0 °F - -17.0 °F 75% 29.68 in 10.0 mi Calm Calm - N/A   Clear
8:56 AM -5.1 °F - -13.0 °F 69% 29.68 in 10.0 mi Calm Calm - N/A   Partly Cloudy
9:56 AM 3.9 °F - -11.0 °F 50% 29.66 in 10.0 mi Calm Calm - N/A   Clear
10:56 AM 5.0 °F - -9.9 °F 50% 29.65 in 10.0 mi Calm Calm - N/A   Clear
11:56 AM 9.0 °F 2.4 °F -5.1 °F 53% 29.65 in 10.0 mi West 3.5 mph - N/A   Partly Cloudy
12:56 PM 14.0 °F - -4.0 °F 45% 29.64 in 10.0 mi Calm Calm - N/A   Clear
1:56 PM 18.0 °F - -7.1 °F 33% 29.63 in 10.0 mi Calm Calm - N/A   Overcast
2:56 PM 19.0 °F 11.1 °F -5.1 °F 34% 29.63 in 10.0 mi East 5.8 mph - N/A   Scattered Clouds
3:56 PM 19.0 °F 10.0 °F -5.1 °F 34% 29.63 in 10.0 mi East 6.9 mph - N/A   Clear
4:56 PM 15.1 °F 4.2 °F -2.0 °F 47% 29.63 in 10.0 mi SW 8.1 mph - N/A   Clear
5:56 PM 16.0 °F 5.3 °F -0.0 °F 49% 29.63 in 10.0 mi WSW 8.1 mph - N/A   Overcast
6:56 PM 16.0 °F 8.8 °F -2.0 °F 45% 29.64 in 10.0 mi South 4.6 mph - N/A   Overcast
7:56 PM 12.9 °F -0.9 °F -5.1 °F 45% 29.65 in 10.0 mi East 11.5 mph - N/A   Overcast
8:56 PM 10.9 °F -1.8 °F -7.1 °F 44% 29.66 in 10.0 mi East 9.2 mph - N/A   Overcast
9:56 PM 10.9 °F 4.7 °F -8.0 °F 42% 29.66 in 10.0 mi NE 3.5 mph - N/A   Overcast
10:56 PM 10.0 °F 3.6 °F -8.0 °F 44% 29.67 in 10.0 mi ENE 3.5 mph - N/A   Overcast
11:56 PM 9.0 °F 0.6 °F -5.1 °F 53% 29.67 in 10.0 mi West 4.6 mph - N/A   Overcast